Hourly Weather Rus'ke

Today, 20 April, Tuesday

Time Temperature Precipitation Wind Pressure Humidity
00:00 +9°C° 0 mm 1 mps 747 mmHg 92%
01:00 +9°C° 0 mm 1 mps 747 mmHg 91%
02:00 +9°C° 0 mm 1 mps 747 mmHg 93%
03:00 +8°C° 0 mm 1 mps 747 mmHg 91%
04:00 +8°C° 0 mm 1 mps 747 mmHg 91%
05:00 +8°C° 0 mm 1 mps 747 mmHg 96%
06:00 +7°C° 0 mm 1 mps 747 mmHg 97%
07:00 +7°C° 0 mm 0 mps 747 mmHg 97%
08:00 +8°C° 0 mm 0 mps 747 mmHg 95%
09:00 +11°C° 0 mm 1 mps 748 mmHg 90%
10:00 +13°C° 0 mm 1 mps 748 mmHg 84%
11:00 +13°C° 0.5 mm 2 mps 747 mmHg 89%
12:00 +13°C° 1.1 mm 2 mps 747 mmHg 90%
13:00 +12°C° 0.9 mm 3 mps 747 mmHg 90%
14:00 +13°C° 2.3 mm 1 mps 747 mmHg 79%
15:00 +13°C° 0 mm 3 mps 747 mmHg 85%
16:00 +12°C° 2 mm 2 mps 747 mmHg 93%
17:00 +12°C° 0.8 mm 0 mps 747 mmHg 84%
18:00 +12°C° 0 mm 0 mps 746 mmHg 80%
19:00 +12°C° 0 mm 0 mps 747 mmHg 91%
20:00 +11°C° 0 mm 0 mps 747 mmHg 87%
21:00 +12°C° 0 mm 1 mps 747 mmHg 92%
22:00 +9°C° 0 mm 2 mps 747 mmHg 96%
23:00 +10°C° 0 mm 1 mps 747 mmHg 91%

Tomorrow, 21 April, Wednesday

Time Temperature Precipitation Wind Pressure Humidity
00:00 +11°C° 0 mm 1 mps 747 mmHg 85%
01:00 +10°C° 0 mm 1 mps 747 mmHg 88%
02:00 +9°C° 0 mm 1 mps 748 mmHg 92%
03:00 +8°C° 0 mm 1 mps 748 mmHg 95%
04:00 +7°C° 0 mm 0 mps 748 mmHg 91%
05:00 +7°C° 0 mm 1 mps 748 mmHg 92%
06:00 +6°C° 0 mm 1 mps 748 mmHg 97%
07:00 +7°C° 0 mm 1 mps 749 mmHg 100%
08:00 +8°C° 0 mm 1 mps 749 mmHg 100%
09:00 +8°C° 0 mm 1 mps 749 mmHg 100%
10:00 +9°C° 0 mm 1 mps 750 mmHg 99%
11:00 +9°C° 0 mm 1 mps 750 mmHg 100%
12:00 +10°C° 0 mm 1 mps 750 mmHg 100%
13:00 +9°C° 0 mm 2 mps 750 mmHg 97%
14:00 +12°C° 0 mm 2 mps 750 mmHg 95%
15:00 +13°C° 0 mm 2 mps 749 mmHg 93%
16:00 +13°C° 0 mm 1 mps 749 mmHg 92%
17:00 +14°C° 0 mm 2 mps 749 mmHg 90%
18:00 +14°C° 0 mm 2 mps 749 mmHg 88%
19:00 +13°C° 0.8 mm 1 mps 749 mmHg 97%
20:00 +13°C° 0 mm 1 mps 749 mmHg 97%
21:00 +12°C° 0 mm 2 mps 749 mmHg 97%
22:00 +12°C° 0 mm 2 mps 750 mmHg 97%
23:00 +12°C° 0 mm 2 mps 750 mmHg 97%

Day after tomorrow, 22 April, Thursday

Time Temperature Precipitation Wind Pressure Humidity
00:00 +10°C° 0 mm 2 mps 750 mmHg 98%
01:00 +10°C° 0 mm 3 mps 750 mmHg 99%
02:00 +10°C° 0 mm 3 mps 750 mmHg 99%
03:00 +10°C° 0 mm 3 mps 750 mmHg 99%
04:00 +9°C° 0 mm 3 mps 750 mmHg 100%
05:00 +9°C° 0 mm 3 mps 750 mmHg 100%
06:00 +9°C° 0 mm 2 mps 750 mmHg 100%
07:00 +9°C° 0 mm 2 mps 750 mmHg 100%
08:00 +9°C° 0 mm 2 mps 750 mmHg 100%
09:00 +9°C° 0 mm 3 mps 751 mmHg 98%
10:00 +9°C° 0 mm 3 mps 751 mmHg 97%
11:00 +10°C° 0 mm 3 mps 751 mmHg 96%
12:00 +11°C° 0 mm 3 mps 750 mmHg 96%
13:00 +12°C° 0 mm 3 mps 750 mmHg 95%
14:00 +14°C° 0.3 mm 4 mps 750 mmHg 91%
15:00 +14°C° 0.1 mm 4 mps 749 mmHg 89%
16:00 +14°C° 1.1 mm 4 mps 749 mmHg 86%
17:00 +14°C° 0 mm 4 mps 749 mmHg 87%
18:00 +14°C° 0 mm 3 mps 749 mmHg 89%
19:00 +13°C° 0 mm 3 mps 749 mmHg 91%
20:00 +13°C° 0 mm 3 mps 749 mmHg 95%
21:00 +12°C° 0.2 mm 3 mps 749 mmHg 96%
22:00 +13°C° 0 mm 2 mps 749 mmHg 98%
23:00 +13°C° 0 mm 2 mps 749 mmHg 99%

23 April, Friday

Time Temperature Precipitation Wind Pressure Humidity
00:00 +12°C° 0 mm 1 mps 749 mmHg 99%
01:00 +12°C° 0 mm 1 mps 748 mmHg 99%
02:00 +12°C° 0.3 mm 1 mps 748 mmHg 100%
03:00 +11°C° 0.2 mm 1 mps 748 mmHg 100%
04:00 +10°C° 0.1 mm 2 mps 748 mmHg 98%
05:00 +8°C° 0.1 mm 4 mps 749 mmHg 89%
06:00 +7°C° 0 mm 3 mps 749 mmHg 90%
07:00 +9°C° 0 mm 1 mps 750 mmHg 86%
08:00 +9°C° 0 mm 3 mps 751 mmHg 82%
09:00 +10°C° 0 mm 4 mps 751 mmHg 78%
10:00 +10°C° 0 mm 5 mps 751 mmHg 75%
11:00 +10°C° 0 mm 5 mps 752 mmHg 73%
12:00 +12°C° 0 mm 5 mps 752 mmHg 70%
13:00 +12°C° 0 mm 5 mps 752 mmHg 75%
14:00 +12°C° 0 mm 4 mps 752 mmHg 74%
15:00 +12°C° 0 mm 5 mps 752 mmHg 66%
16:00 +12°C° 0 mm 5 mps 752 mmHg 65%
17:00 +12°C° 0 mm 5 mps 752 mmHg 69%
18:00 +11°C° 0 mm 4 mps 752 mmHg 71%
19:00 +10°C° 0 mm 3 mps 752 mmHg 76%
20:00 +9°C° 0 mm 2 mps 753 mmHg 82%
21:00 +8°C° 0 mm 2 mps 753 mmHg 82%
22:00 +8°C° 0 mm 2 mps 753 mmHg 84%
23:00 +7°C° 0 mm 2 mps 754 mmHg 84%

24 April, Saturday

Time Temperature Precipitation Wind Pressure Humidity
00:00 +7°C° 0 mm 2 mps 754 mmHg 85%
01:00 +6°C° 0 mm 2 mps 754 mmHg 90%
02:00 +5°C° 0 mm 2 mps 754 mmHg 91%
03:00 +5°C° 0 mm 2 mps 754 mmHg 90%
04:00 +4°C° 0 mm 2 mps 754 mmHg 90%
05:00 +4°C° 0 mm 2 mps 755 mmHg 89%
06:00 +5°C° 0 mm 1 mps 755 mmHg 87%
07:00 +6°C° 0 mm 1 mps 755 mmHg 88%
08:00 +6°C° 0 mm 0 mps 755 mmHg 84%
09:00 +8°C° 0 mm 1 mps 756 mmHg 79%
10:00 +10°C° 0 mm 1 mps 756 mmHg 74%
11:00 +9°C° 0 mm 2 mps 756 mmHg 74%
12:00 +10°C° 0 mm 3 mps 755 mmHg 74%
13:00 +11°C° 0 mm 4 mps 755 mmHg 72%
14:00 +11°C° 0 mm 4 mps 755 mmHg 67%
15:00 +12°C° 0 mm 4 mps 755 mmHg 66%
16:00 +12°C° 0 mm 3 mps 754 mmHg 67%
17:00 +12°C° 0 mm 4 mps 754 mmHg 74%
18:00 +11°C° 0.1 mm 4 mps 754 mmHg 79%
19:00 +11°C° 0 mm 3 mps 754 mmHg 83%
20:00 +10°C° 0 mm 3 mps 754 mmHg 89%
21:00 +10°C° 0 mm 3 mps 754 mmHg 92%
22:00 +8°C° 0 mm 4 mps 753 mmHg 93%
23:00 +8°C° 0.2 mm 4 mps 754 mmHg 95%

25 April, Sunday

Time Temperature Precipitation Wind Pressure Humidity
00:00 +9°C° 0 mm 3 mps 754 mmHg 97%
01:00 +9°C° 0 mm 2 mps 754 mmHg 95%
02:00 +8°C° 0 mm 2 mps 754 mmHg 89%
03:00 +8°C° 0 mm 2 mps 754 mmHg 88%
04:00 +7°C° 0 mm 2 mps 754 mmHg 89%
05:00 +6°C° 0 mm 2 mps 754 mmHg 92%
06:00 +5°C° 0 mm 2 mps 754 mmHg 93%
07:00 +7°C° 0 mm 1 mps 755 mmHg 91%
08:00 +9°C° 0 mm 1 mps 755 mmHg 83%
09:00 +9°C° 0 mm 2 mps 756 mmHg 76%
10:00 +10°C° 0 mm 3 mps 756 mmHg 75%
11:00 +10°C° 0 mm 4 mps 757 mmHg 68%
12:00 +9°C° 0 mm 5 mps 757 mmHg 62%
13:00 +10°C° 0 mm 5 mps 757 mmHg 60%
14:00 +10°C° 0 mm 5 mps 757 mmHg 58%
15:00 +11°C° 0 mm 4 mps 757 mmHg 60%
16:00 +11°C° 0 mm 4 mps 756 mmHg 62%
17:00 +11°C° 0 mm 4 mps 756 mmHg 66%
18:00 +10°C° 0 mm 3 mps 757 mmHg 74%
19:00 +10°C° 0 mm 1 mps 756 mmHg 78%
20:00 +8°C° 0 mm 2 mps 757 mmHg 79%
21:00 +9°C° 0 mm 1 mps 757 mmHg 75%
22:00 +8°C° 0 mm 1 mps 757 mmHg 75%
23:00 +6°C° 0 mm 2 mps 757 mmHg 81%
Show more